Location: Mentone
(34.5413°N, 85.5351°W)
Time: 01:40:49
(UTC-05:00)

Vanguard 3 - All Passes

Search period start: 17 April 2014 00:00
Search period end: 27 April 2014 00:00
Orbit: 507 x 3281 km, 33.4° (Epoch: 16 April)

Date Brightness Start Highest point End Pass type
(mag) Time Alt. Az. Time Alt. Az. Time Alt. Az.
17 Apr - 06:13:49 10° SSW 06:29:54 34° SE 06:45:17 10° E daylight
17 Apr - 08:26:07 10° SW 08:45:54 64° SSE 09:01:02 10° E daylight
17 Apr - 10:43:12 10° W 11:02:22 85° S 11:14:07 10° E daylight
17 Apr - 13:02:05 10° W 13:17:28 75° SSW 13:25:52 10° ESE daylight
17 Apr - 15:20:34 10° W 15:29:44 32° SW 15:35:25 10° SSE daylight
18 Apr - 05:03:50 10° S 05:16:17 22° SE 05:29:15 10° E visible
18 Apr - 07:12:52 10° SW 07:31:29 52° SSE 07:47:59 10° E daylight
18 Apr - 09:28:00 10° WSW 09:48:09 79° SSE 10:02:08 10° E daylight
18 Apr - 11:46:26 10° W 12:04:21 84° S 12:14:40 10° E daylight
18 Apr - 14:05:12 10° W 14:18:12 53° SSW 14:25:30 10° SE daylight
18 Apr - 16:25:50 10° WSW 16:28:54 12° SW 16:31:30 10° SSW daylight
19 Apr - 03:59:00 10° SE 04:03:10 11° SE 04:07:28 10° ESE visible
19 Apr - 06:00:52 10° SSW 06:17:21 39° SE 06:33:55 10° E daylight
19 Apr - 08:13:38 10° WSW 08:33:35 70° SSE 08:49:37 10° E daylight
19 Apr - 10:30:48 10° W 10:50:29 86° S 11:03:00 10° E daylight
19 Apr - 12:49:41 10° W 13:05:50 71° SSW 13:14:50 10° ESE daylight
19 Apr - 15:08:40 10° W 15:18:00 28° SW 15:24:00 10° SSE daylight
20 Apr - 04:50:27 10° S 05:03:44 26° SE 05:18:16 10° E visible
20 Apr - 07:00:20 10° SW 07:18:59 58° SSE 07:36:25 10° E daylight
20 Apr - 09:15:38 10° WSW 09:36:01 82° S 09:50:49 10° E daylight
20 Apr - 11:34:00 10° W 11:52:35 82° S 12:03:35 10° ESE daylight
20 Apr - 13:52:54 10° W 14:06:28 48° SW 14:14:18 10° SE daylight
20 Apr - 16:16:45 10° WSW 16:17:05 10° SW 16:17:24 10° SW daylight
21 Apr - 03:42:59 10° SSE 03:50:43 15° SE 03:59:12 10° ESE visible
21 Apr - 05:48:13 10° SSW 06:04:43 44° SE 06:22:18 10° E daylight
21 Apr - 08:01:18 10° WSW 08:21:12 74° SSE 08:38:06 10° E daylight
21 Apr - 10:18:27 10° W 10:38:31 86° S 10:51:47 10° E daylight
21 Apr - 12:37:14 10° W 12:54:03 67° SSW 13:03:42 10° SE daylight
21 Apr - 14:56:47 10° W 15:06:08 25° SW 15:12:24 10° S daylight
22 Apr - 04:37:29 10° S 04:51:06 31° SE 05:06:51 10° E visible
22 Apr - 06:48:00 10° SW 07:06:25 63° SSE 07:24:42 10° ENE daylight
22 Apr - 09:03:23 10° WSW 09:23:49 85° S 09:39:26 10° E daylight
22 Apr - 11:21:34 10° W 11:40:41 80° SSW 11:52:25 10° ESE daylight
22 Apr - 13:40:34 10° W 13:54:34 43° SW 14:02:56 10° SSE daylight
23 Apr - 03:28:55 10° SSE 03:38:11 18° SE 03:48:57 10° E visible
23 Apr - 05:35:49 10° SW 05:52:04 50° SE 06:10:29 10° ENE visible
23 Apr - 07:49:07 10° WSW 08:08:48 79° SSE 08:26:28 10° E daylight
23 Apr - 10:06:08 10° W 10:26:27 86° S 10:40:30 10° E daylight
23 Apr - 12:24:45 10° WNW 12:42:06 62° SSW 12:52:25 10° SE daylight
23 Apr - 14:44:58 10° W 14:54:07 22° SW 15:00:32 10° S daylight
24 Apr - 04:24:52 10° SSW 04:38:26 35° SE 04:55:07 10° E visible
24 Apr - 06:35:50 10° SW 06:53:52 68° SSE 07:12:52 10° E daylight
24 Apr - 08:51:12 10° W 09:11:34 86° S 09:27:57 10° E daylight
24 Apr - 11:09:08 10° W 11:28:38 76° SSW 11:41:07 10° ESE daylight
24 Apr - 13:28:15 10° W 13:42:31 39° SW 13:51:25 10° SSE daylight
25 Apr - 03:15:40 10° S 03:25:37 21° SE 03:37:53 10° E visible
25 Apr - 05:23:37 10° SW 05:39:25 55° SSE 05:58:29 10° ENE visible
25 Apr - 07:37:04 10° WSW 07:56:22 82° SSE 08:14:45 10° E daylight
25 Apr - 09:53:51 10° W 10:14:17 84° S 10:29:06 10° ESE daylight
25 Apr - 12:12:16 10° WNW 12:29:59 57° SSW 12:41:00 10° SE daylight
25 Apr - 14:33:19 10° W 14:41:59 19° SW 14:48:23 10° S daylight
26 Apr - 04:12:32 10° SSW 04:25:47 40° SE 04:43:08 10° E visible
26 Apr - 06:23:51 10° WSW 06:41:19 73° SSE 07:00:54 10° E daylight
26 Apr - 08:39:06 10° W 08:59:15 87° S 09:16:22 10° E daylight
26 Apr - 10:56:42 10° W 11:16:27 72° SSW 11:29:42 10° ESE daylight
26 Apr - 13:15:57 10° W 13:30:17 35° SW 13:39:41 10° SSE daylight
